Regional Weather Roundup
Issued by NWS

Home | Current Version | Previous Version | Graphics & Text | Print | Product List | Glossary On
Versions: 1 2 3 4 5 6 7 8 9 10 11 12 13 14 15 16 17 18 19 20 21 22 23 24 25 26 27 28
000
ASUS45 KCYS 261110
RWRWY

WYOMING REGIONAL WEATHER ROUNDUP
NATIONAL WEATHER SERVICE CHEYENNE WY
500 AM MDT WED APR 26 2017

NOTE:  "FAIR" INDICATES FEW OR NO CLOUDS BELOW 12,000 FEET
WITH NO SIGNIFICANT WEATHER AND/OR OBSTRUCTIONS TO VISIBILITY.

WYZ001-261200-
YELLOWSTONE NATIONAL PARK

CITY           SKY/WX    TMP DP  RH WIND       PRES   REMARKS
LK YELLOWSTONE   N/A     27  24  89 VRB3      29.82S
W YELLOWSTONE  NOT AVBL

$$
WYZ002>013-054>058-071-098>099-261200-
NORTHERN WYOMING

CITY           SKY/WX    TMP DP  RH WIND       PRES   REMARKS
JACKSON        CLOUDY    36  28  75 S12       29.83S WCI  27
CODY           LGT RAIN  35  34  96 S8        29.78F WCI  29
GREYBULL       MOCLDY    34  28  79 CALM      29.80S
WORLAND        FAIR      31  30  96 SE6       29.79F WCI  25
SHERIDAN       CLOUDY    30  26  85 E3        29.81S
BUFFALO        NOT AVBL
GILLETTE       CLOUDY    26  26 100 SW8       29.82S WCI  18
HULETT         CLOUDY    25  23  93 S5        29.84F WCI  19
NEWCASTLE      CLOUDY    23  23 100 NW12      29.85S WCI  12

$$
WYZ014>020-022>026-101>103-261200-
CENTRAL WYOMING

CITY           SKY/WX    TMP DP  RH WIND       PRES   REMARKS
BIG PINEY      FAIR      30  28  92 CALM      29.87S
PINEDALE       FAIR      28  27  93 CALM      29.87F
DUBOIS         FAIR      27  21  80 NW7       29.81F WCI  19
LANDER         FAIR      30  24  78 SW6       29.80F WCI  24
RIVERTON       CLOUDY    30  30 100 CALM      29.81S
CASPER         FAIR      31  28  89 SW16      29.80F WCI  20
DOUGLAS        FAIR      24  22  91 N3        29.82F

$$
WYZ021-027>030-104>119-261200-
SOUTHERN WYOMING

CITY           SKY/WX    TMP DP  RH WIND       PRES   REMARKS
EVANSTON       MOCLDY    31  28  89 SW10      29.89F WCI  22
KEMMERER       FLURRIES  32  28  86 CALM      29.89F
FORT BRIDGER   FAIR      33  28  80 SW15      29.92S WCI  23
ROCK SPRINGS   CLOUDY    34  29  82 SW8       29.87F WCI  27
DIXON            N/A     31  29  92 CALM      29.93S
RAWLINS        MOCLDY    31  26  82 CALM      29.85F
SARATOGA       PTSUNNY   27  27 100 S8        29.88S WCI  18
LARAMIE        FAIR      23  19  85 CALM      29.82S
CHEYENNE       FAIR      30  22  72 N6        29.80S WCI  24
TORRINGTON     FAIR      30  25  81 CALM      29.82S
PINE BLUFFS    FAIR      30  28  93 NW7       29.82S WCI  23

$$




USA.gov is the U.S. government's official web portal to all federal, state and local government web resources and services.